Simultaneous Nadir Overpasses (SNOs) Predictions

Prediction of SNOs between NOAA-19 and TERRA Satellite Orbit:

Table of predicted SNOs for the next 14.0 days since TLE Epoch: 7/29/2015
Index Date (NOAA-19) Time (NOAA-19) Lat,Lon (NOAA-19) SZA (NOAA-19 ) Date (TERRA) Time (TERRA) Lat,Lon (TERRA) SZA (TERRA ) Distance(km) Time Diff (sec)
1 07/31/2015 04:29:13 72.26, 116.92 53.84 07/31/2015 04:29:33 72.28, 116.94 53.86 2.87 20
2 07/31/2015 05:20:14 -72.16, -75.66 126.25 07/31/2015 05:19:03 -72.16, -75.63 126.26 0.87 71
3 08/02/2015 09:12:36 72.48, 45.67 54.60 08/02/2015 09:13:48 72.39, 46.08 54.53 16.60 72
4 08/02/2015 10:03:34 -72.21,-146.54 125.66 08/02/2015 10:03:19 -72.23,-146.59 125.64 2.73 15
5 08/04/2015 14:46:55 -72.31, 142.47 124.99 08/04/2015 14:47:35 -72.28, 142.44 125.01 2.72 40
6 08/04/2015 15:37:51 72.17, -50.00 54.90 08/04/2015 15:37:02 72.18, -50.10 54.90 3.55 49
7 08/06/2015 20:21:12 72.30,-121.05 55.62 08/06/2015 20:21:17 72.29,-120.98 55.61 2.67 5
8 08/06/2015 21:12:04 -71.68, 47.41 124.97 08/06/2015 21:10:55 -71.75, 45.71 124.94 59.73 69
9 08/09/2015 01:04:31 72.33, 168.10 56.27 08/09/2015 01:05:33 72.34, 168.04 56.28 2.28 62
10 08/09/2015 01:55:34 -72.24, -24.49 123.81 08/09/2015 01:55:03 -72.23, -24.52 123.83 1.50 31
11 08/11/2015 06:38:54 -72.30, -95.41 123.11 08/11/2015 06:39:18 -72.33, -95.41 123.08 3.02 24
